Simultaneous Nadir Overpasses (SNOs) Predictions

Prediction of SNOs between METOP-A and NOAA-19 Satellite Orbit:

Table of predicted SNOs for the next 14.0 days since TLE Epoch: 6/1/2012
Index Date (METOP-A) Time (METOP-A) METOP-A Lat,Lon Date (NOAA-19) Time (NOAA-19) NOAA-19 Lat,Lon Distance(km) Time Diff (sec)
1 06/05/2012 11:57:22 -73.43, 174.02 06/05/2012 11:56:10 -73.43, 172.66 42.93 72
2 06/05/2012 12:48:08 73.10, -19.38 06/05/2012 12:47:05 73.10, -19.35 0.76 63
3 06/05/2012 13:38:51 -73.06, 147.86 06/05/2012 13:38:08 -73.07, 147.95 3.30 43
4 06/05/2012 14:29:30 73.08, -44.76 06/05/2012 14:29:10 73.09, -44.85 2.82 20
5 06/05/2012 15:20:13 -73.04, 122.47 06/05/2012 15:20:13 -73.05, 122.46 1.78 0
6 06/05/2012 16:10:53 73.01, -70.26 06/05/2012 16:11:14 73.02, -70.23 2.07 21
7 06/05/2012 17:01:35 -73.02, 97.09 06/05/2012 17:02:17 -72.99, 97.08 2.95 42
8 06/05/2012 17:52:15 72.99, -95.64 06/05/2012 17:53:18 72.96, -95.61 2.98 63
9 06/05/2012 18:43:05 -72.59, 70.86 06/05/2012 18:44:15 -72.63, 72.33 49.16 70
10 06/15/2012 08:27:32 -73.69,-132.94 06/15/2012 08:26:24 -73.69,-135.48 79.36 68
11 06/15/2012 09:18:22 73.15, 33.16 06/15/2012 09:17:12 73.14, 33.05 3.68 70
12 06/15/2012 10:09:06 -73.07,-159.68 06/15/2012 10:08:17 -73.08,-159.61 2.48 49
13 06/15/2012 10:59:45 73.07, 7.66 06/15/2012 10:59:16 73.07, 7.67 0.37 29
14 06/15/2012 11:50:28 -73.05, 174.94 06/15/2012 11:50:22 -73.07, 174.90 2.54 6
15 06/15/2012 12:41:07 73.05, -17.72 06/15/2012 12:41:21 73.06, -17.82 3.26 14
16 06/15/2012 13:31:50 -73.03, 149.55 06/15/2012 13:32:26 -73.01, 149.51 2.67 36
17 06/15/2012 14:22:30 72.98, -43.22 06/15/2012 14:23:25 73.00, -43.21 1.86 55
18 06/15/2012 15:13:15 -72.86, 123.84 06/15/2012 15:14:29 -72.90, 124.24 13.61 74




NCC Satellite Simultaneous Nadir Overpasses (SNOs) Prediction Service
